User: anonymous   Login
Location: Bothwell
(42.3833°S, 147.0000°E)
Time: 06:26:51
(UTC+10:00)
Language:

FO-29 - Orbit

View from above orbital plane
View from above orbital plane
View from above satellite
View from above satellite

Ground track
Ground track

The orbit data is extracted from the following two-line orbital elements,

1 24278U 96046B   22267.51688827 -.00000021  00000-0  13949-4 0  9996
2 24278  98.5156 277.5715 0350735  26.4097 335.4457 13.53120407289000
Epoch (UTC): 24 September 2022 12:24:19
Eccentricity: 0.0350735
inclination: 98.5156°
perigee height: 800 km
apogee height: 1322 km
right ascension of ascending node: 277.5715°
argument of perigee: 26.4097°
revolutions per day: 13.53120407
mean anomaly at epoch: 335.4457°
orbit number at epoch: 28900

The dashed part of the orbit path shows where the satellite is in the earth's shadow,  

DLR